Moorhead, MN

3:18 AM CDT on June 28, 2017 (GMT -0500)
Moorhead Municipal

Weather History for KJKJ - March, 2013

Change the Weather History Date:

Sunday, March 10, 2013

  Actual Average (KFAR) Record (KFAR)
Temperature  
Mean Temperature 14 °F -  
Max Temperature 24 °F 32 °F 58 °F (1911)
Min Temperature 1 °F 13 °F -34 °F (1948)
Degree Days  
Heating Degree Days 52    
Moisture  
Dew Point 16 °F    
Average Humidity 92    
Maximum Humidity 100    
Minimum Humidity 79    
Precipitation  
Precipitation 0.00 in - - ()
Sea Level Pressure  
Sea Level Pressure 30.11 in    
Wind  
Wind Speed 21 mph (North)    
Max Wind Speed 28 mph    
Max Gust Speed 33 mph    
Visibility 8 miles    
Events      
Averages and records for this station are not official NWS values.
T = Trace of Precipitation, MM = Missing Value Source: NWS Daily Summary

Daily Weather History Graph

Daily Weather History Graph

Search for Another Location

Airport or City:

Trip Planner

Search our weather history database for the weather conditions in past years. The results will help you decide how hot, cold, wet, or windy it might be!

Date:

Astronomy

Mar. 10, 2013 Rise Set
Actual Time 7:48 AM CDT 7:25 PM CDT
Civil Twilight 7:18 AM CDT 7:55 PM CDT
Nautical Twilight 6:43 AM CDT 8:31 PM CDT
Astronomical Twilight 6:07 AM CDT 9:06 PM CDT
Moon 6:51 AM CDT (3/10) 6:34 PM CDT (3/10)
Length of Visible Light 12h 37m
Length of Day
11h 36m
Waning Crescent, 2% of the Moon is Illuminated
Mar 10
Waning Crescent
Mar 11
New
Mar 19
First Quarter
Mar 27
Full
Apr 2
Last Quarter

Hourly Weather History & Observations

Time (CDT) Temp. Windchill Dew Point Humidity Pressure Visibility Wind Dir Wind Speed Gust Speed Precip Events Conditions
12:15 AM 24.8 °F 8.7 °F 23.0 °F 93% 30.00 in 5.0 mi North 26.5 mph 32.2 mph N/A   Overcast
12:34 AM 23.0 °F 6.9 °F 21.2 °F 93% 30.00 in 5.0 mi North 24.2 mph - N/A   Overcast
12:55 AM 23.0 °F 6.9 °F 21.2 °F 93% 30.00 in 5.0 mi North 24.2 mph - N/A   Mostly Cloudy
1:15 AM 23.0 °F 6.6 °F 21.2 °F 93% 30.00 in 7.0 mi North 25.3 mph - N/A   Mostly Cloudy
1:34 AM 23.0 °F 7.2 °F 21.2 °F 93% 30.01 in 7.0 mi North 23.0 mph - N/A   Mostly Cloudy
1:55 AM 23.0 °F 7.2 °F 23.0 °F 100% 30.02 in 10.0 mi North 23.0 mph - N/A   Mostly Cloudy
3:15 AM 23.0 °F 8.3 °F 23.0 °F 100% 30.02 in 10.0 mi North 19.6 mph - N/A   Overcast
3:34 AM 23.0 °F 8.3 °F 21.2 °F 93% 30.03 in 10.0 mi North 19.6 mph - N/A   Overcast
3:55 AM 23.0 °F 7.6 °F 21.2 °F 93% 30.03 in 10.0 mi North 21.9 mph 27.6 mph N/A   Overcast
4:14 AM 23.0 °F 8.3 °F 21.2 °F 93% 30.03 in 10.0 mi North 19.6 mph 24.2 mph N/A   Overcast
4:35 AM 23.0 °F 8.7 °F 21.2 °F 93% 30.03 in 10.0 mi North 18.4 mph - N/A   Overcast
4:55 AM 23.0 °F 8.3 °F 21.2 °F 93% 30.04 in 10.0 mi North 19.6 mph - N/A   Overcast
5:14 AM 23.0 °F 8.3 °F 21.2 °F 93% 30.04 in 10.0 mi North 19.6 mph - N/A   Overcast
5:35 AM 21.2 °F 5.2 °F 21.2 °F 100% 30.05 in 10.0 mi North 21.9 mph - N/A   Overcast
5:55 AM 21.2 °F 4.9 °F - N/A% 30.06 in 10.0 mi North 23.0 mph - N/A   Overcast
6:14 AM 21.2 °F 4.9 °F 21.2 °F 100% 30.07 in 10.0 mi North 23.0 mph - N/A   Overcast
7:35 AM 21.2 °F 4.9 °F 21.2 °F 100% 30.13 in 7.0 mi North 23.0 mph - N/A   Overcast
7:55 AM 21.2 °F 4.5 °F 21.2 °F 100% 30.12 in 4.0 mi North 24.2 mph - N/A   Overcast
8:14 AM 21.2 °F 5.2 °F 21.2 °F 100% 30.13 in 3.0 mi North 21.9 mph - N/A   Overcast
8:35 AM 21.2 °F 4.5 °F 19.4 °F 93% 30.14 in 2.5 mi North 24.2 mph - N/A   Overcast
8:54 AM 19.4 °F 1.8 °F 19.4 °F 100% 30.13 in 2.0 mi North 25.3 mph 29.9 mph N/A   Overcast
9:15 AM 19.4 °F 1.8 °F 19.4 °F 100% 30.14 in 2.0 mi North 25.3 mph - N/A   Overcast
9:34 AM 19.4 °F 1.1 °F 19.4 °F 100% 30.13 in 2.5 mi North 27.6 mph 32.2 mph N/A   Overcast
9:55 AM 19.4 °F 2.1 °F 19.4 °F 100% 30.15 in 3.0 mi North 24.2 mph - N/A   Overcast
10:15 AM 19.4 °F 1.8 °F 19.4 °F 100% 30.15 in 3.0 mi North 25.3 mph - N/A   Overcast
10:34 AM 19.4 °F 2.1 °F 19.4 °F 100% 30.16 in 4.0 mi North 24.2 mph - N/A   Overcast
10:55 AM 19.4 °F 2.1 °F 19.4 °F 100% 30.17 in 7.0 mi North 24.2 mph - N/A   Overcast
11:14 AM 19.4 °F 2.5 °F 19.4 °F 100% 30.17 in 7.0 mi North 23.0 mph - N/A   Overcast
11:35 AM 19.4 °F 1.1 °F 19.4 °F 100% 30.16 in 4.0 mi North 27.6 mph 33.4 mph N/A   Overcast
11:55 AM 21.2 °F 4.9 °F 19.4 °F 93% 30.16 in 5.0 mi North 23.0 mph 32.2 mph N/A   Scattered Clouds
12:14 PM 21.2 °F 4.2 °F 19.4 °F 93% 30.16 in 3.0 mi North 25.3 mph 32.2 mph N/A   Scattered Clouds
12:35 PM 21.2 °F 5.2 °F 19.4 °F 93% 30.16 in 7.0 mi North 21.9 mph - N/A   Overcast
12:55 PM 21.2 °F 4.9 °F 19.4 °F 93% 30.16 in 5.0 mi North 23.0 mph 28.8 mph N/A   Overcast
1:14 PM 19.4 °F 2.8 °F 19.4 °F 100% 30.15 in 4.0 mi North 21.9 mph - N/A   Overcast
1:35 PM 19.4 °F 3.2 °F 19.4 °F 100% 30.17 in 5.0 mi North 20.7 mph 26.5 mph N/A   Overcast
1:54 PM 19.4 °F 3.2 °F 19.4 °F 100% 30.18 in 7.0 mi NNE 20.7 mph 24.2 mph N/A   Overcast
2:15 PM 21.2 °F 6.4 °F 17.6 °F 86% 30.18 in 7.0 mi North 18.4 mph - N/A   Overcast
2:35 PM 21.2 °F 6.4 °F 17.6 °F 86% 30.17 in 4.0 mi North 18.4 mph - N/A   Overcast
2:54 PM 21.2 °F 5.2 °F 17.6 °F 86% 30.16 in 7.0 mi North 21.9 mph - N/A   Overcast
3:15 PM 21.2 °F 6.4 °F 17.6 °F 86% 30.16 in 5.0 mi North 18.4 mph - N/A   Overcast
3:35 PM 19.4 °F 4.5 °F 17.6 °F 93% 30.16 in 7.0 mi North 17.3 mph - N/A   Overcast
3:54 PM 19.4 °F 4.1 °F 17.6 °F 93% 30.16 in 10.0 mi North 18.4 mph - N/A   Overcast
4:15 PM 19.4 °F 4.5 °F 17.6 °F 93% 30.17 in 10.0 mi North 17.3 mph - N/A   Overcast
4:35 PM 19.4 °F 5.0 °F 17.6 °F 93% 30.17 in 10.0 mi North 16.1 mph - N/A   Scattered Clouds
4:54 PM 19.4 °F 4.1 °F 15.8 °F 86% 30.15 in 10.0 mi North 18.4 mph - N/A   Clear
5:15 PM 19.4 °F 4.1 °F 15.8 °F 86% 30.14 in 10.0 mi North 18.4 mph - N/A   Clear
5:35 PM 19.4 °F 3.2 °F 15.8 °F 86% 30.13 in 10.0 mi North 20.7 mph - N/A   Clear
5:54 PM 19.4 °F 5.0 °F 15.8 °F 86% 30.13 in 10.0 mi North 16.1 mph - N/A   Clear
6:15 PM 19.4 °F 5.0 °F 15.8 °F 86% 30.13 in 10.0 mi North 16.1 mph - N/A   Clear
6:35 PM 17.6 °F 2.2 °F 12.2 °F 79% 30.11 in 10.0 mi North 17.3 mph - N/A   Clear
6:54 PM 17.6 °F 1.7 °F 12.2 °F 79% 30.12 in 10.0 mi North 18.4 mph - N/A   Clear
7:15 PM 15.8 °F -0.2 °F 12.2 °F 86% 30.12 in 10.0 mi North 17.3 mph - N/A   Clear
7:35 PM 15.8 °F 1.4 °F 10.4 °F 79% 30.13 in 10.0 mi North 13.8 mph - N/A   Clear
7:54 PM 14.0 °F 0.5 °F 10.4 °F 86% 30.13 in 10.0 mi North 11.5 mph - N/A   Clear
8:15 PM 12.2 °F -1.0 °F 8.6 °F 85% 30.14 in 10.0 mi North 10.4 mph - N/A   Clear
8:35 PM 12.2 °F -1.8 °F 8.6 °F 85% 30.13 in 10.0 mi North 11.5 mph - N/A   Clear
8:54 PM 10.4 °F -1.5 °F 6.8 °F 85% 30.13 in 10.0 mi North 8.1 mph - N/A   Clear
9:15 PM 8.6 °F -4.7 °F 6.8 °F 92% 30.12 in 10.0 mi North 9.2 mph - N/A   Clear
9:35 PM 8.6 °F -4.7 °F 6.8 °F 92% 30.11 in 10.0 mi North 9.2 mph - N/A   Clear
9:54 PM 6.8 °F -4.8 °F 3.2 °F 85% 30.12 in 10.0 mi North 6.9 mph - N/A   Clear
10:15 PM 6.8 °F -5.9 °F 3.2 °F 85% 30.12 in 10.0 mi North 8.1 mph - N/A   Clear
10:34 PM 6.8 °F -6.9 °F 5.0 °F 92% 30.12 in 10.0 mi North 9.2 mph - N/A   Clear
10:55 PM 6.8 °F -7.8 °F 3.2 °F 85% 30.12 in 10.0 mi North 10.4 mph - N/A   Clear
11:15 PM 6.8 °F -5.9 °F 3.2 °F 85% 30.11 in 10.0 mi North 8.1 mph - N/A   Clear
11:34 PM 6.8 °F -4.8 °F 3.2 °F 85% 30.11 in 10.0 mi North 6.9 mph - N/A   Clear
11:55 PM 3.2 °F -7.8 °F 1.4 °F 92% 30.11 in 10.0 mi North 5.8 mph - N/A   Clear
12:15 AM 3.2 °F -10.3 °F 3.2 °F 100% 30.09 in 10.0 mi North 8.1 mph - N/A   Clear
12:34 AM 3.2 °F -11.3 °F 1.4 °F 92% 30.07 in 10.0 mi North 9.2 mph - N/A   Clear
12:55 AM 1.4 °F -15.3 °F 1.4 °F 100% 30.07 in 10.0 mi NNW 11.5 mph - N/A   Clear